Location: Lake Arresoe
(56.0000°N, 12.5000°E)
Time: 08:50:39
(UTC+02:00)

Cosmos 1674 - Pass Details

Date: 01 August 2021
Orbit: 491 x 516 km, 82.5° (Epoch: 26 September)

Event Time Altitude Azimuth Distance (km) Brightness Sun altitude
Rises 02:10:06 0° 355° (N) 2,657 7.8 -15.1°
Reaches altitude 10° 02:12:39 10° 12° (NNE) 1,764 6.8 -15.0°
Maximum altitude 02:15:39 21° 63° (ENE) 1,203 5.0 -14.9°
Drops below altitude 10° 02:18:39 10° 114° (ESE) 1,750 5.3 -14.8°
Enters shadow 02:20:47 - 129° (SE) 2,488 5.9 -14.8°
